When you browse on this site, cookies collect data to enhance your experience and personalize the content and advertising you see.
Visit our Privacy Policy to learn more. By continuing to use the site, you agree to this use of cookies and data.
  • In Spain
  • List of Countries
  • For 7 days
  • Water Temperature
  • Satellite Maps
  • Weather Map
  • Weather Widgets
  • user-avatar
    Login

    Hourly Weather San Luis

    Today, 12 December, Wednesday

    Time Temperature Precipitation Wind Pressure Humidity
    00:00 +22°C° 0.1 mm 7 mps 698 mmHg 77%
    01:00 +22°C° 0.1 mm 8 mps 698 mmHg 77%
    02:00 +21°C° 0 mm 9 mps 699 mmHg 74%
    03:00 +19°C° 0 mm 9 mps 699 mmHg 68%
    04:00 +19°C° 0 mm 9 mps 699 mmHg 63%
    05:00 +18°C° 0 mm 9 mps 699 mmHg 58%
    06:00 +19°C° 0 mm 9 mps 700 mmHg 51%
    07:00 +21°C° 0 mm 9 mps 700 mmHg 44%
    08:00 +24°C° 0 mm 9 mps 701 mmHg 38%
    09:00 +26°C° 0 mm 8 mps 701 mmHg 35%
    10:00 +28°C° 0 mm 7 mps 700 mmHg 32%
    11:00 +30°C° 0 mm 7 mps 700 mmHg 30%
    12:00 +32°C° 0 mm 6 mps 700 mmHg 28%
    13:00 +33°C° 0 mm 5 mps 699 mmHg 26%
    14:00 +34°C° 0 mm 5 mps 698 mmHg 24%
    15:00 +34°C° 0 mm 5 mps 697 mmHg 26%
    16:00 +34°C° 0 mm 6 mps 696 mmHg 27%
    17:00 +33°C° 0 mm 6 mps 696 mmHg 29%
    18:00 +32°C° 0 mm 7 mps 695 mmHg 33%
    19:00 +30°C° 0 mm 7 mps 695 mmHg 38%
    20:00 +28°C° 0 mm 7 mps 695 mmHg 42%
    21:00 +28°C° 0.2 mm 7 mps 695 mmHg 46%
    22:00 +27°C° 0.2 mm 7 mps 695 mmHg 51%
    23:00 +26°C° 0.2 mm 7 mps 695 mmHg 55%

    Tomorrow, 13 December, Thursday

    Time Temperature Precipitation Wind Pressure Humidity
    00:00 +24°C° 0.4 mm 6 mps 695 mmHg 59%
    01:00 +25°C° 0.4 mm 5 mps 694 mmHg 63%
    02:00 +23°C° 0.4 mm 4 mps 693 mmHg 66%
    03:00 +23°C° 0.4 mm 4 mps 693 mmHg 68%
    04:00 +22°C° 0.4 mm 4 mps 693 mmHg 70%
    05:00 +22°C° 0.4 mm 4 mps 692 mmHg 72%
    06:00 +25°C° 0.2 mm 4 mps 693 mmHg 67%
    07:00 +26°C° 0.2 mm 5 mps 693 mmHg 63%
    08:00 +28°C° 0.2 mm 6 mps 693 mmHg 58%
    09:00 +30°C° 0.1 mm 6 mps 693 mmHg 53%
    10:00 +32°C° 0.1 mm 6 mps 692 mmHg 49%
    11:00 +34°C° 0.1 mm 6 mps 692 mmHg 45%
    12:00 +35°C° 0 mm 6 mps 692 mmHg 40%
    13:00 +35°C° 0 mm 5 mps 691 mmHg 35%
    14:00 +36°C° 0 mm 5 mps 690 mmHg 31%
    15:00 +37°C° 0 mm 4 mps 690 mmHg 28%
    16:00 +37°C° 0 mm 4 mps 690 mmHg 26%
    17:00 +37°C° 0 mm 4 mps 689 mmHg 24%
    18:00 +34°C° 0.8 mm 5 mps 689 mmHg 36%
    19:00 +32°C° 0.8 mm 6 mps 690 mmHg 49%
    20:00 +28°C° 0.8 mm 7 mps 690 mmHg 61%
    21:00 +28°C° 0.5 mm 7 mps 690 mmHg 61%
    22:00 +27°C° 0.5 mm 6 mps 691 mmHg 62%
    23:00 +27°C° 0.5 mm 6 mps 692 mmHg 63%

    Day after tomorrow, 14 December, Friday

    Time Temperature Precipitation Wind Pressure Humidity
    00:00 +26°C° 0.3 mm 6 mps 692 mmHg 64%
    01:00 +26°C° 0.3 mm 7 mps 692 mmHg 65%
    02:00 +24°C° 0.3 mm 7 mps 692 mmHg 67%
    03:00 +23°C° 0 mm 8 mps 693 mmHg 63%
    04:00 +22°C° 0 mm 10 mps 693 mmHg 58%
    05:00 +19°C° 0 mm 11 mps 694 mmHg 54%
    06:00 +19°C° 0 mm 11 mps 695 mmHg 47%
    07:00 +19°C° 0 mm 11 mps 696 mmHg 40%
    08:00 +19°C° 0 mm 11 mps 698 mmHg 33%
    09:00 +21°C° 0 mm 10 mps 698 mmHg 31%
    10:00 +23°C° 0 mm 10 mps 698 mmHg 29%
    11:00 +24°C° 0 mm 10 mps 699 mmHg 27%
    12:00 +26°C° 0 mm 9 mps 699 mmHg 25%
    13:00 +27°C° 0 mm 8 mps 699 mmHg 23%
    14:00 +28°C° 0 mm 7 mps 699 mmHg 22%
    15:00 +28°C° 0 mm 8 mps 698 mmHg 22%
    16:00 +27°C° 0 mm 8 mps 698 mmHg 21%
    17:00 +27°C° 0 mm 8 mps 698 mmHg 21%
    18:00 +26°C° 0 mm 7 mps 698 mmHg 23%
    19:00 +23°C° 0 mm 7 mps 699 mmHg 25%
    20:00 +21°C° 0 mm 6 mps 699 mmHg 27%
    21:00 +21°C° 0 mm 5 mps 700 mmHg 29%
    22:00 +20°C° 0 mm 5 mps 700 mmHg 30%
    23:00 +19°C° 0 mm 5 mps 701 mmHg 32%

    15 December, Saturday

    Time Temperature Precipitation Wind Pressure Humidity
    00:00 +19°C° 0 mm 4 mps 700 mmHg 32%
    01:00 +18°C° 0 mm 4 mps 700 mmHg 33%
    02:00 +18°C° 0 mm 4 mps 699 mmHg 33%
    03:00 +18°C° 0 mm 4 mps 699 mmHg 32%
    04:00 +18°C° 0 mm 4 mps 699 mmHg 31%
    05:00 +18°C° 0 mm 4 mps 699 mmHg 30%
    06:00 +20°C° 0 mm 5 mps 700 mmHg 27%
    07:00 +22°C° 0 mm 6 mps 701 mmHg 23%
    08:00 +26°C° 0 mm 7 mps 702 mmHg 19%
    09:00 +28°C° 0 mm 6 mps 701 mmHg 17%
    10:00 +29°C° 0 mm 6 mps 701 mmHg 16%
    11:00 +32°C° 0 mm 5 mps 701 mmHg 14%
    12:00 +33°C° 0 mm 5 mps 700 mmHg 14%
    13:00 +34°C° 0 mm 5 mps 700 mmHg 15%
    14:00 +35°C° 0 mm 5 mps 699 mmHg 15%
    15:00 +35°C° 0 mm 5 mps 698 mmHg 16%
    16:00 +35°C° 0 mm 5 mps 698 mmHg 17%
    17:00 +35°C° 0 mm 5 mps 697 mmHg 18%
    18:00 +33°C° 0 mm 5 mps 697 mmHg 20%
    19:00 +30°C° 0 mm 5 mps 697 mmHg 22%
    20:00 +28°C° 0 mm 5 mps 697 mmHg 25%
    21:00 +27°C° 0 mm 5 mps 697 mmHg 27%
    22:00 +27°C° 0 mm 6 mps 697 mmHg 29%
    23:00 +26°C° 0 mm 7 mps 697 mmHg 31%

    16 December, Sunday

    Time Temperature Precipitation Wind Pressure Humidity
    00:00 +24°C° 0 mm 7 mps 697 mmHg 36%
    01:00 +24°C° 0 mm 7 mps 696 mmHg 42%
    02:00 +23°C° 0 mm 8 mps 696 mmHg 48%
    03:00 +22°C° 0 mm 8 mps 696 mmHg 53%
    04:00 +22°C° 0 mm 7 mps 696 mmHg 58%
    05:00 +21°C° 0 mm 7 mps 695 mmHg 63%
    06:00 +23°C° 0 mm 7 mps 696 mmHg 59%
    07:00 +26°C° 0 mm 7 mps 697 mmHg 55%
    08:00 +28°C° 0 mm 7 mps 697 mmHg 51%
    09:00 +29°C° 0 mm 6 mps 697 mmHg 46%
    10:00 +32°C° 0 mm 5 mps 697 mmHg 40%
    11:00 +33°C° 0 mm 4 mps 698 mmHg 34%
    12:00 +34°C° 0.5 mm 3 mps 697 mmHg 33%
    13:00 +35°C° 0.5 mm 3 mps 696 mmHg 31%
    14:00 +35°C° 0.5 mm 2 mps 696 mmHg 29%
    15:00 +35°C° 0.1 mm 2 mps 696 mmHg 28%
    16:00 +35°C° 0.1 mm 2 mps 695 mmHg 28%
    17:00 +35°C° 0.1 mm 2 mps 695 mmHg 27%
    18:00 +34°C° 0 mm 2 mps 695 mmHg 30%
    19:00 +31°C° 0 mm 2 mps 695 mmHg 33%
    20:00 +30°C° 0 mm 2 mps 695 mmHg 36%
    21:00 +29°C° 0 mm 3 mps 695 mmHg 39%
    22:00 +28°C° 0 mm 3 mps 695 mmHg 41%
    23:00 +27°C° 0 mm 3 mps 695 mmHg 44%

    17 December, Monday

    Time Temperature Precipitation Wind Pressure Humidity
    00:00 +27°C° 0 mm 4 mps 695 mmHg 48%
    01:00 +26°C° 0 mm 4 mps 695 mmHg 52%
    02:00 +26°C° 0 mm 5 mps 695 mmHg 56%
    03:00 +25°C° 0.4 mm 5 mps 696 mmHg 54%
    04:00 +23°C° 0.4 mm 6 mps 696 mmHg 52%
    05:00 +21°C° 0.4 mm 7 mps 697 mmHg 50%
    06:00 +21°C° 0.4 mm 7 mps 698 mmHg 48%
    07:00 +21°C° 0.4 mm 7 mps 699 mmHg 46%
    08:00 +21°C° 0.4 mm 7 mps 699 mmHg 43%
    09:00 +23°C° 0.1 mm 7 mps 700 mmHg 40%
    10:00 +26°C° 0.1 mm 7 mps 700 mmHg 37%
    11:00 +28°C° 0.1 mm 7 mps 701 mmHg 34%
    12:00 +30°C° 0 mm 7 mps 701 mmHg 33%
    13:00 +32°C° 0 mm 7 mps 700 mmHg 31%
    14:00 +33°C° 0 mm 7 mps 700 mmHg 30%
    15:00 +33°C° 0 mm 7 mps 700 mmHg 31%
    16:00 +32°C° 0 mm 8 mps 700 mmHg 31%
    17:00 +32°C° 0 mm 8 mps 699 mmHg 32%
    18:00 +29°C° 0 mm 8 mps 699 mmHg 36%
    19:00 +28°C° 0 mm 7 mps 700 mmHg 40%
    20:00 +26°C° 0 mm 7 mps 700 mmHg 43%
    21:00 +24°C° 0 mm 7 mps 700 mmHg 49%
    22:00 +23°C° 0 mm 7 mps 700 mmHg 55%
    23:00 +22°C° 0 mm 7 mps 701 mmHg 61%
    Show more